Date,TemperatureHighF,TemperatureAvgF,TemperatureLowF,DewpointHighF,DewpointAvgF,DewpointLowF,HumidityHigh,HumidityAvg,HumidityLow,PressureMaxIn,PressureMinIn,WindSpeedMaxMPH,WindSpeedAvgMPH,GustSpeedMaxMPH,PrecipitationSumIn
2012-1-1,52.9,39.2,28.7,46.5,35.1,21.8,95,85,67,29.14,28.72,22,6,37,0.11
2012-1-2,28.6,24.9,20.6,21.7,17.5,15.3,87,73,61,28.96,28.86,21,9,37,0.00
2012-1-3,63.6,19.1,13.9,59.3,12.4,4.1,86,75,62,29.09,28.94,23,4,24,1.58
2012-1-4,28.2,13.6,4.4,9.5,3.5,-3.3,80,66,35,29.21,28.97,29,3,29,0.00
2012-1-5,35.3,30.1,26.9,21.7,20.3,18.0,75,67,51,29.07,28.94,18,4,20,0.00
2012-1-6,51.9,40.7,33.9,27.9,23.7,19.2,56,51,39,28.96,28.86,24,5,24,0.00
2012-1-7,50.7,43.3,33.6,39.6,29.0,20.8,77,58,38,29.13,28.85,15,6,29,0.00
2012-1-8,34.9,30.8,24.1,26.5,23.3,19.6,94,74,60,29.33,29.14,8,1,16,0.00
2012-1-9,38.4,29.2,24.3,28.7,23.2,20.9,90,78,67,29.31,29.06,13,2,13,0.00
2012-1-10,41.5,34.5,30.3,31.3,27.7,24.5,87,76,65,29.07,29.00,20,4,20,0.00
2012-1-11,36.6,31.5,21.6,32.7,28.0,21.6,100,87,72,29.03,28.82,18,3,18,0.20
2012-1-12,41.7,38.5,36.0,41.7,37.9,35.1,100,98,94,28.57,28.52,16,3,28,0.04
2012-1-13,36.2,17.6,14.9,36.2,13.3,7.9,100,83,73,28.94,28.45,18,8,39,0.03
2012-1-14,58.9,19.2,13.2,54.4,14.4,9.0,85,81,72,29.14,28.95,8,4,16,0.00
2012-1-15,20.6,15.3,10.6,11.3,9.1,6.1,84,76,62,29.48,29.13,8,1,16,0.00
2012-1-16,41.4,27.8,11.5,37.8,18.9,6.1,91,70,45,29.45,29.05,9,2,21,0.20
2012-1-17,45.9,43.1,40.6,45.2,40.3,35.5,100,90,84,29.05,28.73,23,6,28,1.61
2012-1-18,34.4,24.2,16.2,27.9,18.7,5.1,93,79,63,29.16,28.87,24,10,34,1.64
2012-1-19,29.6,19.1,12.5,12.6,9.9,2.8,85,70,33,29.13,28.89,31,2,31,1.64
2012-1-20,24.1,16.5,6.0,19.1,8.2,0.8,86,70,46,29.24,29.00,9,2,19,0.04
2012-1-21,28.9,25.5,22.5,25.8,22.3,18.6,90,87,84,29.26,28.89,8,2,15,0.00
2012-1-22,30.9,25.5,18.2,28.3,21.8,14.7,91,86,84,29.32,29.19,11,4,22,0.00
2012-1-23,42.3,39.3,33.7,36.3,34.7,29.0,93,84,80,29.00,28.80,22,7,22,1.85
2012-1-24,41.7,37.9,35.5,34.0,29.9,27.3,82,73,62,29.12,28.95,25,5,25,1.86
2012-1-25,41.9,31.6,26.6,31.5,27.0,24.4,94,84,64,29.38,29.20,8,2,15,1.86
2012-1-26,37.3,34.9,33.5,36.8,33.1,30.9,100,93,82,29.18,28.88,12,1,12,0.43
2012-1-27,51.8,43.3,31.4,49.7,41.0,28.9,100,92,85,28.80,28.50,32,4,32,0.80
2012-1-28,37.8,31.8,28.0,33.5,25.6,13.3,89,78,53,29.16,28.92,16,3,29,0.29
2012-1-29,37.9,27.7,22.0,24.0,15.3,11.3,90,61,38,29.21,28.99,16,5,35,0.01
2012-1-30,32.5,25.3,-36.5,17.8,14.6,-42.1,81,64,47,29.33,29.19,14,3,21,1.12
2012-1-31,53.2,45.3,41.6,27.9,22.9,19.2,47,41,34,29.25,29.11,25,5,28,1.12
2012-2-1,51.1,44.4,39.0,44.9,39.8,28.0,97,84,41,29.11,28.08,23,4,72,0.09
2012-2-2,40.1,36.5,31.6,39.5,32.5,24.5,100,86,73,28.39,28.05,25,2,25,0.09
2012-2-3,45.4,33.4,25.9,32.2,26.9,21.5,93,78,56,28.52,28.36,9,0,9,0.00
2012-2-4,26.0,25.2,24.1,24.8,23.9,23.2,100,95,91,28.37,28.32,0,0,0,0.00
2012-2-5,34.9,30.8,24.1,31.5,27.4,22.4,100,87,73,28.25,28.16,7,0,7,0.27
2012-2-6,42.4,31.1,16.2,29.2,22.8,16.0,100,74,42,28.25,28.11,16,1,16,0.27
2012-2-7,37.5,30.4,23.5,29.3,25.7,17.1,93,83,64,28.26,28.14,14,2,17,0.27
2012-2-8,31.1,26.8,-16.8,30.1,25.0,-18.0,97,93,84,28.26,28.13,12,1,14,0.39
2012-2-9,33.1,26.0,1.2,22.6,18.9,-12.8,94,76,50,28.28,28.20,14,1,14,0.39
2012-2-10,31.3,27.3,-35.8,28.1,23.1,-36.0,100,85,74,28.21,27.91,15,0,15,0.39
2012-2-11,28.0,20.3,-8.0,28.0,18.1,-12.0,100,91,77,28.04,27.79,29,2,29,0.00
2012-2-12,16.6,13.8,11.5,7.4,6.5,5.7,82,72,65,28.10,28.03,13,1,13,0.00
2012-2-13,33.4,29.5,26.3,17.2,14.5,13.0,61,54,45,28.16,28.08,21,1,21,0.02
2012-2-14,38.9,31.7,20.4,31.3,24.0,14.6,93,74,49,28.09,27.97,13,1,13,0.10
2012-2-15,40.0,33.0,27.2,30.8,27.5,22.4,93,81,63,28.31,28.07,17,1,17,0.11
2012-2-16,42.5,37.8,30.0,42.0,35.3,25.9,99,91,77,28.25,28.01,14,1,14,0.35
2012-2-17,41.9,35.6,28.4,40.8,28.2,17.9,96,75,54,28.18,28.05,22,4,22,0.37
2012-2-18,45.0,32.1,22.1,30.8,24.1,19.8,94,73,51,28.16,27.96,25,3,25,0.37
2012-2-19,34.2,28.7,0.4,24.5,22.2,-3.6,91,77,62,28.14,27.96,14,1,14,0.37
2012-2-20,38.9,28.7,7.1,23.9,20.0,3.0,92,71,43,28.33,28.05,12,1,12,0.37
2012-2-21,47.2,36.0,22.2,36.0,24.2,16.0,85,63,51,28.29,27.87,16,1,16,0.40
2012-2-22,51.2,43.4,34.8,37.4,32.3,25.8,89,67,39,27.88,27.56,30,4,30,0.46
2012-2-23,50.4,44.1,39.3,39.0,33.3,28.1,90,67,44,27.74,27.53,22,4,22,0.58
2012-2-24,60.2,43.3,32.3,52.2,36.0,23.9,93,76,45,27.76,27.47,38,7,38,0.69
2012-2-25,32.3,26.2,-11.5,24.3,18.4,-19.0,83,72,65,28.30,27.75,34,4,34,0.69
2012-2-26,40.7,30.5,21.4,20.0,16.5,10.8,70,57,37,28.45,28.29,16,1,16,0.69
2012-2-27,55.0,38.6,22.3,28.1,22.1,17.1,84,55,35,28.41,28.19,30,2,30,0.69
2012-2-28,49.0,36.8,22.6,26.0,19.8,14.7,82,54,26,28.51,28.27,15,1,15,0.69
2012-2-29,59.9,44.9,35.6,56.5,38.2,22.5,100,79,49,28.25,27.68,26,3,26,2.13
2012-3-1,53.7,42.1,29.5,49.4,33.3,24.7,86,71,62,28.00,27.68,38,5,38,2.16
2012-3-2,49.5,38.8,27.0,48.1,34.0,23.0,98,83,67,28.01,27.63,22,2,22,2.39
2012-3-3,51.5,41.7,31.9,49.8,31.4,23.0,96,68,45,27.84,27.58,28,5,28,2.40
2012-3-4,30.8,27.6,25.4,24.2,21.6,20.1,85,78,69,27.91,27.76,20,3,20,2.40
2012-3-5,28.7,24.8,21.4,23.4,18.9,13.2,88,78,60,28.44,27.90,18,2,18,2.40
2012-3-6,44.2,30.4,14.6,22.4,17.8,9.1,87,61,40,28.58,28.44,14,1,14,2.41
2012-3-7,61.4,44.2,24.8,34.9,26.1,18.7,84,53,28,28.51,28.31,23,3,23,2.41
2012-3-8,61.7,50.7,36.4,47.8,41.1,32.6,91,71,48,28.33,28.02,30,8,30,2.86
2012-3-9,38.2,33.3,26.0,32.8,21.0,11.5,87,61,42,28.41,28.15,35,8,35,2.86
2012-3-10,42.5,30.7,19.1,17.0,11.7,6.3,67,47,25,28.56,28.40,18,2,18,2.86
2012-3-11,62.1,41.6,16.8,28.0,22.3,12.5,84,52,24,28.51,28.38,14,1,14,2.86
2012-3-12,63.7,45.8,32.6,53.1,34.9,25.9,100,69,29,28.40,28.18,16,1,16,3.04
2012-3-13,66.3,58.0,50.2,54.4,49.3,42.7,100,75,45,28.20,28.11,21,6,21,3.04
2012-3-14,71.2,56.5,40.4,45.5,40.9,34.9,84,58,34,28.34,28.19,18,2,18,3.04
2012-3-15,71.8,55.2,29.2,48.5,42.3,25.5,91,66,37,28.32,28.21,20,2,20,3.04
2012-3-16,67.0,57.6,48.8,53.6,50.0,44.3,89,77,57,28.30,28.21,16,3,16,3.11
2012-3-17,70.9,57.0,40.9,60.3,44.9,39.7,98,69,34,28.38,28.28,20,4,20,0.01
2012-3-18,71.4,62.0,54.2,56.6,52.6,48.8,89,72,53,28.36,28.24,19,2,19,0.01
2012-3-19,67.8,57.6,50.3,58.3,54.3,48.9,100,89,69,28.28,28.22,11,1,11,0.11
2012-3-20,74.6,61.1,47.1,60.0,52.4,46.2,100,75,43,28.34,28.25,17,2,17,0.12
2012-3-21,61.5,56.8,48.2,57.0,52.9,45.8,98,87,80,28.39,28.30,18,2,18,0.12
2012-3-22,79.0,62.8,47.9,64.9,52.0,46.1,100,72,33,28.34,28.20,14,1,14,0.12
2012-3-23,76.9,61.3,44.4,60.1,51.2,42.0,94,72,43,28.24,28.05,21,3,21,0.14
2012-3-24,62.0,57.7,54.1,57.5,55.0,51.0,100,91,70,28.08,27.93,16,2,16,2.06
2012-3-25,61.1,54.3,49.6,54.4,50.3,47.3,96,87,68,28.01,27.90,13,2,15,2.07
2012-3-26,52.8,42.9,30.3,47.5,27.9,8.3,85,58,31,28.32,28.00,27,5,27,2.07
2012-3-27,54.2,38.9,23.0,21.7,12.2,7.7,60,36,20,28.39,28.15,10,1,10,2.07
2012-3-28,68.3,55.9,35.1,56.6,38.0,21.6,89,53,32,28.16,27.81,33,6,33,0.27
2012-3-29,53.3,44.0,34.4,39.6,32.6,24.8,76,64,53,28.14,27.91,27,5,27,0.27
2012-3-30,60.7,44.3,28.4,46.2,35.7,24.9,93,73,53,28.13,27.82,54,2,54,2.95
2012-3-31,53.5,46.2,40.6,52.0,42.9,34.8,100,88,79,27.99,27.83,18,3,18,3.32
2012-4-1,62.4,47.9,37.9,50.3,38.3,29.2,97,72,36,27.98,27.73,16,4,16,3.71
2012-4-2,53.5,44.0,37.1,44.3,30.5,24.1,93,61,33,28.08,27.75,17,4,17,3.71
2012-4-3,65.2,46.0,27.3,34.1,24.3,8.7,90,53,12,28.12,27.90,16,1,16,3.71
2012-4-4,60.3,52.9,44.4,42.4,33.7,19.5,72,50,26,27.95,27.80,24,4,24,0.00
2012-4-5,51.2,40.3,28.8,30.1,24.3,19.4,86,56,33,27.99,27.90,14,1,14,0.00
2012-4-6,51.0,38.7,26.4,25.1,18.5,7.9,82,49,25,28.23,28.03,16,2,16,0.00
2012-4-7,50.7,40.6,25.5,25.6,16.1,8.7,78,39,23,28.33,28.21,21,2,21,0.00
2012-4-8,53.3,41.6,26.7,35.3,24.9,15.6,81,53,35,28.22,28.01,29,5,35,0.00
2012-4-9,49.8,41.6,35.3,36.0,27.8,17.0,93,61,37,28.06,27.88,32,6,32,0.05
2012-4-10,45.2,38.0,31.7,34.0,25.1,19.0,94,62,37,28.00,27.86,28,6,28,0.05
2012-4-11,40.8,33.5,28.8,33.0,28.0,21.3,95,81,63,28.18,27.94,27,3,27,0.10
2012-4-12,45.9,38.2,30.6,32.6,28.7,26.5,91,70,48,28.28,28.16,16,2,16,0.10
2012-4-13,58.7,42.3,28.5,34.7,28.1,24.4,92,62,29,28.34,28.24,12,1,12,0.10
2012-4-14,61.9,48.2,26.1,48.7,34.8,18.0,100,64,32,28.30,28.16,19,3,20,0.29
2012-4-15,74.6,64.1,48.7,52.8,48.4,43.7,100,59,37,28.18,28.10,25,5,25,0.36
2012-4-16,77.1,65.0,48.2,51.8,47.0,41.1,83,54,35,28.20,28.04,31,6,31,0.36
2012-4-17,61.9,50.7,42.1,44.2,34.4,26.2,74,55,36,28.39,28.20,22,4,22,0.00
2012-4-18,50.6,46.1,37.3,42.5,36.4,27.3,87,70,46,28.35,28.17,18,1,18,0.00
2012-4-19,66.2,52.0,37.4,47.5,39.7,35.3,100,68,33,28.20,28.07,14,1,14,0.00
2012-4-20,71.5,55.2,38.7,46.2,39.5,33.0,87,59,27,28.10,27.88,22,3,22,0.00
2012-4-21,59.6,49.3,40.0,49.9,44.7,38.5,96,84,68,27.95,27.83,14,1,14,0.12
2012-4-22,41.9,38.6,33.2,38.9,35.3,30.2,96,88,77,27.95,27.68,17,2,17,0.18
2012-4-23,33.4,31.2,30.0,31.1,29.2,22.7,96,92,68,27.69,27.49,22,4,22,0.79
2012-4-24,47.2,37.7,25.9,24.0,21.6,18.0,84,55,32,27.78,27.56,28,5,28,0.84
2012-4-25,57.9,45.8,31.5,33.5,27.8,23.7,83,53,29,27.97,27.80,21,3,21,0.84
2012-4-26,65.0,53.0,40.2,52.7,39.9,27.8,90,62,45,27.96,27.73,31,3,31,0.13
2012-4-27,45.7,39.1,34.8,31.7,25.3,20.2,77,59,41,28.29,27.95,26,6,26,0.13
2012-4-28,48.2,37.8,26.5,32.9,23.3,18.7,86,58,36,28.33,28.17,16,2,16,0.05
2012-4-29,61.6,46.1,29.3,45.6,27.7,17.7,100,58,19,28.33,28.21,15,1,15,0.06
2012-4-30,67.1,52.5,36.5,48.0,32.2,17.2,81,48,33,28.32,28.10,22,4,22,0.06
2012-5-1,71.4,61.3,-38.3,56.9,50.5,-43.4,97,71,41,28.17,28.05,24,5,24,0.29
2012-5-2,76.4,64.2,55.5,62.6,56.0,49.9,95,77,48,28.19,28.11,23,3,23,0.55
2012-5-3,80.0,67.2,54.9,62.3,56.6,52.7,94,71,43,28.27,28.13,15,2,15,0.65
2012-5-4,76.3,63.2,53.9,62.5,54.6,48.6,97,76,40,28.20,28.05,21,2,21,0.01
2012-5-5,67.0,57.4,49.3,59.5,53.8,48.7,100,88,62,28.14,28.03,10,0,10,0.02
2012-5-6,72.5,61.5,47.5,61.4,53.2,44.1,100,77,46,28.16,28.08,16,2,16,1.31
2012-5-7,71.6,61.4,43.1,59.7,55.6,40.0,95,82,58,28.15,27.98,28,4,28,1.35
2012-5-8,64.8,58.3,55.1,61.9,56.5,53.4,100,94,83,28.02,27.89,12,2,12,2.12
2012-5-9,58.1,53.7,13.2,55.1,50.2,11.3,100,88,72,27.96,27.83,10,1,10,0.09
2012-5-10,56.0,46.9,40.7,44.0,38.1,31.5,96,73,44,28.09,27.82,25,3,25,0.09
2012-5-11,62.8,48.9,35.0,38.9,33.7,29.6,86,59,35,28.32,28.08,21,2,21,0.00
2012-5-12,69.5,53.5,35.0,44.2,36.8,31.3,94,60,27,28.41,28.30,14,1,14,0.00
2012-5-13,64.7,53.1,46.3,50.7,45.7,40.6,98,78,46,28.33,28.23,12,1,12,0.58
2012-5-14,59.3,55.0,50.3,56.9,54.0,49.9,100,97,87,28.23,28.09,10,1,10,1.01
2012-5-15,66.2,58.6,45.4,57.0,54.5,33.6,100,87,63,28.12,28.06,11,1,11,1.02
2012-5-16,71.2,58.2,44.8,59.1,47.5,35.0,100,73,29,28.16,28.01,19,3,19,0.01
2012-5-17,65.7,54.7,41.5,45.1,34.4,27.9,84,50,26,28.24,28.15,14,2,14,0.01
2012-5-18,68.7,54.0,36.9,45.0,37.8,31.3,92,60,27,28.29,28.22,18,2,18,0.01
2012-5-19,73.7,57.7,40.2,48.3,42.9,37.4,94,63,31,28.30,28.24,14,1,14,0.01
2012-5-20,73.1,60.8,45.1,54.9,46.9,42.8,95,65,36,28.34,28.23,21,3,21,0.01
2012-5-21,63.4,58.1,50.2,59.6,54.7,45.3,97,89,68,28.23,28.05,15,2,15,0.02
2012-5-22,72.6,62.9,29.3,61.4,55.8,29.3,100,80,52,28.05,27.95,21,1,21,0.02
2012-5-23,70.6,61.1,52.9,60.7,56.6,51.9,99,86,65,28.09,28.00,16,1,16,0.19
2012-5-24,70.0,61.4,-36.5,58.5,55.8,-39.3,98,83,63,28.18,28.08,24,5,24,0.19
2012-5-25,81.0,68.0,50.8,61.1,57.2,47.0,97,71,44,28.26,28.16,14,2,14,0.19
2012-5-26,82.2,68.9,56.9,66.2,60.5,55.8,99,77,49,28.31,28.23,23,1,23,0.19
2012-5-27,83.5,67.8,58.9,67.1,61.7,57.4,99,83,46,28.35,28.18,23,2,23,2.07
2012-5-28,84.9,70.2,55.2,67.4,61.5,54.5,100,77,48,28.22,28.08,11,1,12,2.07
2012-5-29,82.0,68.5,57.9,66.4,62.8,49.9,98,83,53,28.08,27.92,23,2,27,0.27
2012-5-30,77.4,66.0,51.0,64.4,55.4,49.7,98,72,39,28.02,27.90,20,3,20,0.30
2012-5-31,74.5,63.2,47.2,54.0,48.5,44.1,96,63,37,28.06,27.96,22,1,22,0.30
2012-6-1,67.5,61.2,-38.3,63.1,54.3,-43.2,93,78,62,27.99,27.74,30,7,30,0.30
2012-6-2,64.1,55.2,47.4,46.5,43.9,40.9,84,67,45,27.98,27.87,25,4,25,0.30
2012-6-3,69.6,56.7,47.8,51.1,46.8,43.2,88,72,42,27.98,27.86,20,2,20,0.42
2012-6-4,61.9,56.7,52.0,50.0,47.3,44.8,84,71,56,27.93,27.82,19,3,19,0.42
2012-6-5,57.9,51.4,6.6,51.3,48.1,4.2,95,89,71,28.07,27.92,11,1,11,0.58
2012-6-6,68.0,56.2,43.0,50.0,46.3,42.2,99,73,43,28.14,28.06,14,1,14,0.59
2012-6-7,71.6,57.5,43.4,56.1,48.0,41.8,98,74,40,28.18,28.11,16,2,16,0.61
2012-6-8,74.9,61.2,42.4,54.9,48.9,41.0,98,69,40,28.19,28.09,19,2,19,0.62
2012-6-9,80.2,67.1,47.5,55.7,51.0,45.8,96,62,33,28.19,28.12,17,2,17,0.62
2012-6-10,82.9,69.4,50.6,60.2,54.2,48.6,95,63,34,28.26,28.19,17,2,17,0.62
2012-6-11,74.7,65.6,55.7,63.9,58.7,53.8,95,80,55,28.26,28.13,23,2,23,0.64
2012-6-12,78.7,68.9,62.0,69.2,64.7,60.2,97,87,65,28.14,27.99,16,1,16,0.84
2012-6-13,70.2,62.7,54.0,62.1,49.3,39.6,93,65,35,28.24,28.08,13,2,16,0.84
2012-6-14,72.1,58.6,43.5,55.3,50.2,39.0,97,76,51,28.32,28.23,18,2,18,0.84
2012-6-15,72.8,65.2,54.7,56.1,54.2,50.9,90,69,51,28.40,28.30,17,3,17,0.84
2012-6-16,71.9,63.1,48.4,57.3,52.8,46.7,97,71,52,28.43,28.28,17,3,17,0.84
2012-6-17,75.3,66.5,55.2,60.7,56.4,50.1,96,70,57,28.28,28.10,21,3,21,1.00
2012-6-18,75.2,64.9,60.6,69.8,62.8,59.5,100,93,74,28.18,28.09,23,1,23,1.41
2012-6-19,84.4,72.6,59.5,69.4,64.3,59.4,100,77,52,28.29,28.18,17,2,17,1.41
2012-6-20,87.2,74.3,59.1,70.6,64.5,58.8,100,75,47,28.34,28.22,12,1,12,1.41
2012-6-21,86.9,74.4,60.0,70.2,64.9,59.4,100,75,49,28.23,28.05,16,1,16,1.41
2012-6-22,79.8,70.7,62.1,68.2,64.0,59.8,97,80,58,28.09,28.02,15,1,15,1.44
2012-6-23,78.5,67.8,54.7,66.5,55.9,50.2,100,70,40,28.20,28.08,13,1,13,1.46
2012-6-24,79.4,66.7,51.3,60.5,54.5,47.5,98,69,34,28.21,28.07,12,1,12,1.46
2012-6-25,71.7,63.4,54.0,60.8,51.4,41.4,92,67,43,28.07,27.95,23,4,23,1.49
2012-6-26,70.5,58.3,45.4,48.2,44.7,41.4,89,63,41,28.09,28.00,21,3,21,1.49
2012-6-27,76.7,64.5,48.1,53.1,49.3,43.6,88,60,39,28.14,28.03,20,3,20,1.49
2012-6-28,89.0,71.4,51.0,64.2,55.0,48.6,94,61,31,28.10,27.95,18,3,18,1.49
2012-6-29,91.8,79.4,63.9,72.6,66.7,62.6,100,67,47,28.10,27.92,38,4,38,4.58
2012-6-30,82.8,75.4,63.9,68.2,65.0,61.3,100,72,50,28.08,27.95,20,2,20,4.59
2012-7-1,86.5,75.5,63.3,69.7,64.8,60.6,100,72,43,28.13,28.04,21,2,21,4.59
2012-7-2,84.0,72.3,60.4,65.3,61.9,59.0,100,73,46,28.20,28.12,15,1,15,4.59
2012-7-3,85.7,70.1,57.6,67.9,63.5,56.5,99,82,47,28.18,28.07,23,1,23,4.67
2012-7-4,88.9,72.9,62.2,73.0,66.9,61.6,100,84,53,28.17,28.02,33,3,33,5.38
2012-7-5,86.1,76.0,62.8,69.2,66.6,62.8,100,75,49,28.13,28.05,18,2,18,0.63
2012-7-6,89.4,77.8,67.5,73.3,69.4,66.1,99,78,49,28.17,28.11,11,1,11,0.63
2012-7-7,93.9,78.3,64.5,75.5,70.4,63.9,100,79,48,28.16,28.06,17,1,17,0.63
2012-7-8,85.3,76.9,69.4,73.5,70.3,64.3,100,81,62,28.11,28.05,17,2,17,0.63
2012-7-9,81.9,73.0,59.7,65.5,58.8,52.1,90,63,39,28.17,28.08,13,2,13,0.63
2012-7-10,82.0,68.3,52.3,59.7,54.3,47.6,100,67,33,28.23,28.15,13,1,13,0.63
2012-7-11,81.1,68.6,53.9,62.7,57.8,52.0,96,71,40,28.30,28.22,19,2,19,0.63
2012-7-12,81.3,70.7,59.1,63.9,59.0,51.6,98,70,39,28.33,28.29,17,2,17,0.63
2012-7-13,73.2,64.7,60.7,64.6,59.8,56.4,97,85,60,28.40,28.32,13,1,13,0.69
2012-7-14,80.5,66.5,60.0,70.1,63.5,57.3,98,91,65,28.34,28.24,16,1,16,1.49
2012-7-15,81.7,70.3,65.4,69.5,66.9,64.9,100,90,61,28.29,28.18,20,2,20,1.55
2012-7-16,83.6,72.8,64.1,69.4,65.6,60.9,99,80,52,28.20,28.07,16,2,16,1.56
2012-7-17,88.1,73.7,58.7,71.0,64.7,57.2,97,76,47,28.12,28.03,15,2,15,1.56
2012-7-18,84.8,72.0,65.3,72.2,67.2,63.7,99,86,60,28.16,28.04,22,2,26,4.14
2012-7-19,82.5,69.0,63.7,68.6,65.7,63.6,100,90,61,28.17,28.05,18,1,18,4.36
2012-7-20,74.8,67.3,62.3,68.2,65.0,60.8,99,93,76,28.13,28.03,14,2,14,4.86
2012-7-21,67.7,63.0,59.5,61.9,59.8,57.7,96,89,79,28.26,28.12,14,2,14,4.87
2012-7-22,80.3,68.6,59.8,65.6,61.8,58.6,99,81,51,28.31,28.23,10,0,10,4.87
2012-7-23,78.7,69.3,59.7,67.8,63.1,58.8,99,82,58,28.29,28.08,18,2,18,4.87
2012-7-24,77.7,71.8,65.1,71.8,67.1,58.6,95,85,70,28.09,27.96,18,2,18,5.25
2012-7-25,77.2,65.3,49.8,60.0,54.7,48.4,98,72,43,28.14,28.00,9,1,14,5.25
2012-7-26,84.9,71.5,59.3,72.6,66.2,57.0,100,85,58,28.00,27.86,38,4,38,5.94
2012-7-27,77.6,69.4,64.4,69.9,65.6,62.2,100,89,66,28.08,27.94,18,3,18,0.18
2012-7-28,75.5,66.1,60.0,65.2,61.0,53.9,98,85,57,28.17,28.05,22,2,22,0.45
2012-7-29,76.0,66.3,58.1,65.0,58.0,51.5,100,78,44,28.22,28.14,14,1,14,0.45
2012-7-30,77.1,66.1,53.1,64.9,58.2,52.5,100,78,54,28.22,28.14,17,2,17,0.46
2012-7-31,74.6,66.0,61.3,67.0,61.8,56.2,98,87,67,28.15,28.02,25,1,25,0.85
2012-8-1,79.3,67.8,57.9,65.9,61.4,57.6,100,82,54,28.07,28.00,13,1,13,0.86
2012-8-2,82.1,68.7,56.3,69.2,60.5,56.0,100,78,47,28.13,28.05,11,1,11,0.87
2012-8-3,82.6,70.6,57.5,67.6,63.4,56.9,100,80,51,28.22,28.09,17,1,17,0.87
2012-8-4,79.4,71.4,63.0,70.7,64.8,61.6,98,80,64,28.28,28.20,23,2,23,1.00
2012-8-5,73.2,68.6,64.2,68.2,64.6,61.4,99,87,74,28.27,28.17,23,2,23,1.16
2012-8-6,76.3,67.8,57.6,65.8,59.9,54.2,100,78,49,28.27,28.18,13,1,13,1.17
2012-8-7,78.4,64.8,53.6,66.2,56.7,52.6,100,78,43,28.20,28.13,11,0,11,1.18
2012-8-8,81.2,67.0,51.9,63.8,58.4,51.1,100,77,49,28.18,28.10,12,1,12,1.19
2012-8-9,81.2,67.0,60.0,66.1,61.5,53.6,96,83,56,28.14,27.96,22,1,22,2.10
2012-8-10,74.2,65.5,59.7,63.2,59.7,57.2,97,82,61,28.04,27.88,31,2,31,2.77
2012-8-11,67.0,60.5,55.0,59.2,54.0,50.4,96,80,60,28.12,27.94,25,3,25,2.78
2012-8-12,70.1,61.1,54.2,57.4,54.3,51.8,95,80,56,28.18,28.09,17,1,17,2.78
2012-8-13,74.3,60.8,47.1,58.4,51.5,45.0,100,76,38,28.20,28.10,10,0,10,2.79
2012-8-14,75.2,63.3,54.9,63.3,57.9,54.1,100,85,52,28.12,27.99,15,1,15,2.81
2012-8-15,70.1,62.5,54.9,60.7,56.8,52.6,99,83,56,28.13,28.03,13,1,13,2.87
2012-8-16,72.2,60.7,50.6,62.2,53.6,49.0,100,80,51,28.18,28.04,14,1,14,2.89
2012-8-17,67.7,59.4,53.2,58.3,55.5,51.8,96,87,69,28.10,28.01,10,1,10,2.89
2012-8-18,68.0,59.1,50.6,55.7,49.5,43.1,97,74,42,28.12,28.04,9,0,9,2.89
2012-8-19,68.2,55.9,47.7,54.9,50.0,46.1,97,82,50,28.11,27.99,12,1,12,3.13
2012-8-20,67.7,57.9,50.1,58.9,52.4,48.1,100,84,53,28.14,28.00,20,1,20,3.82
2012-8-21,71.0,56.8,46.0,64.3,49.7,44.5,100,81,40,28.25,28.13,12,0,12,3.84
2012-8-22,74.2,60.0,46.6,63.7,50.7,45.6,100,76,39,28.29,28.23,11,0,11,3.84
2012-8-23,74.0,60.8,48.6,63.6,50.9,44.6,100,75,37,28.32,28.26,10,0,10,3.85
2012-8-24,73.0,60.1,50.4,60.0,52.8,48.0,99,79,50,28.33,28.26,13,1,13,3.86
2012-8-25,71.3,60.5,51.9,61.9,53.0,46.8,98,79,47,28.36,28.30,17,2,17,3.86
2012-8-26,67.0,62.2,55.6,60.2,57.2,52.0,96,84,68,28.36,28.26,19,3,19,4.06
2012-8-27,76.5,65.1,54.2,62.1,56.5,50.7,99,76,46,28.27,28.10,14,1,14,4.06
2012-8-28,72.6,63.2,50.0,60.9,54.4,43.5,96,75,50,28.18,28.08,16,2,16,4.13
2012-8-29,68.0,55.6,41.2,56.9,48.2,39.2,100,79,49,28.21,28.13,13,1,13,4.14
2012-8-30,76.6,57.2,40.2,58.2,47.9,38.4,99,75,40,28.28,28.20,8,0,8,4.16
2012-8-31,77.0,61.4,39.9,60.9,51.9,37.2,98,74,40,28.30,28.19,19,2,19,4.17
2012-9-1,76.5,66.3,60.2,67.0,61.7,55.8,97,86,62,28.29,28.19,15,1,15,4.48
2012-9-2,69.4,63.4,57.9,66.7,60.6,54.3,100,91,73,28.24,28.12,14,1,14,4.50
2012-9-3,72.2,67.0,62.2,65.6,63.3,57.5,95,88,77,28.17,28.10,14,3,14,4.50
2012-9-4,72.8,64.9,55.7,63.3,59.7,47.3,95,84,67,28.16,27.98,17,1,17,4.56
2012-9-5,73.1,64.1,56.6,64.0,58.5,48.2,99,84,53,28.04,27.98,12,1,12,4.76
2012-9-6,74.7,63.4,53.1,64.7,56.1,45.2,100,80,44,28.09,28.01,14,1,14,4.77
2012-9-7,77.4,64.1,53.5,63.1,56.4,46.5,100,79,41,28.13,27.95,12,1,12,4.78
2012-9-8,61.6,54.9,46.2,57.5,52.3,43.9,96,91,77,28.02,27.82,29,2,29,5.23
2012-9-9,59.3,51.5,45.1,51.3,46.0,39.1,97,83,49,28.15,27.99,19,2,19,5.24
2012-9-10,59.0,49.0,35.9,50.1,41.6,32.8,100,79,49,28.32,28.15,19,2,19,5.26
2012-9-11,68.4,51.6,35.4,54.1,42.8,31.6,100,76,38,28.42,28.31,9,0,9,5.27
2012-9-12,75.5,57.1,39.7,53.8,47.5,38.1,97,74,43,28.45,28.38,12,1,12,5.28
2012-9-13,74.5,59.9,44.9,58.0,51.4,43.8,97,76,46,28.47,28.35,8,0,8,5.28
2012-9-14,75.2,60.0,47.4,56.6,51.3,42.2,98,76,43,28.39,28.24,16,2,16,5.31
2012-9-15,61.9,52.5,42.4,54.3,46.5,41.3,100,81,57,28.40,28.27,14,1,14,5.32
2012-9-16,66.3,52.4,41.7,53.8,42.7,34.5,100,75,36,28.30,28.19,10,0,10,5.33
2012-9-17,71.3,54.5,33.8,58.6,47.2,30.6,97,79,41,28.22,28.03,16,2,16,5.36
2012-9-18,62.0,58.3,48.2,61.8,57.4,45.9,100,97,92,28.03,27.70,20,2,20,6.52
2012-9-19,57.9,48.6,39.3,47.9,40.4,35.5,97,76,47,28.26,28.01,18,2,18,6.52
2012-9-20,69.3,51.8,34.3,51.6,42.4,32.6,98,75,35,28.26,28.10,19,1,19,6.53
2012-9-21,69.8,58.0,46.1,56.5,50.5,44.4,98,78,50,28.14,27.98,21,2,21,6.53
2012-9-22,66.0,58.4,44.6,54.3,50.1,38.5,93,74,56,28.15,27.92,30,4,30,6.54
2012-9-23,52.9,45.7,40.3,40.6,37.9,33.7,91,75,51,28.27,28.14,19,3,19,6.54
2012-9-24,55.9,44.6,35.7,43.3,35.6,29.6,98,74,39,28.32,28.19,18,2,18,6.55
2012-9-25,65.3,48.2,30.1,47.4,37.9,27.8,97,71,35,28.25,28.13,20,1,20,6.56
2012-9-26,61.1,55.8,51.2,56.9,52.8,47.2,97,90,77,28.26,28.15,24,2,24,7.09
2012-9-27,65.0,57.0,51.6,60.5,55.8,50.5,100,96,80,28.30,28.19,15,0,15,7.73
2012-9-28,57.9,54.8,51.8,57.9,52.6,43.1,100,93,70,28.21,28.14,13,1,13,7.75
2012-9-29,53.9,47.5,30.4,52.1,42.7,22.8,100,84,64,28.17,28.04,11,0,11,7.76
2012-9-30,50.6,44.6,38.8,47.4,43.2,38.3,99,95,87,28.04,27.95,13,0,13,7.99
2012-10-1,61.3,47.6,35.3,51.7,42.9,35.0,100,86,53,28.06,27.97,17,1,17,8.00
2012-10-2,64.1,56.8,52.8,61.7,55.6,49.0,100,96,87,28.06,27.96,18,2,18,8.42
2012-10-3,65.3,60.3,55.2,62.8,56.8,54.7,100,89,71,28.27,28.05,10,0,10,0.01
2012-10-4,64.8,56.9,46.7,59.0,50.8,44.5,100,82,51,28.31,28.25,21,2,21,0.01
2012-10-5,68.5,54.8,43.9,52.9,48.0,42.9,98,80,52,28.27,28.04,19,2,19,0.01
2012-10-6,55.4,45.7,35.1,50.5,40.7,32.5,98,84,54,28.17,27.95,19,2,19,0.05
2012-10-7,47.4,38.9,33.8,38.6,34.6,31.7,96,86,61,28.24,28.09,20,1,20,0.09
2012-10-8,41.7,36.0,29.9,37.1,32.5,28.3,97,88,66,28.32,28.23,15,1,15,0.09
2012-10-9,55.6,43.7,36.6,39.2,33.6,28.5,88,68,49,28.26,28.11,12,1,12,0.09
2012-10-10,53.6,41.6,33.1,42.2,36.5,27.6,96,83,60,28.19,27.99,27,4,27,0.13
2012-10-11,54.4,39.7,28.5,30.2,27.2,24.0,87,64,33,28.35,28.19,27,2,27,0.13
2012-10-12,46.9,36.6,27.0,35.7,29.2,24.3,94,76,47,28.48,28.22,18,2,18,0.13
2012-10-13,56.3,41.0,23.6,38.8,30.4,20.8,92,68,49,28.48,28.23,21,2,21,0.13
2012-10-14,68.6,57.1,42.9,51.7,45.0,36.5,86,65,46,28.23,27.92,25,3,25,0.13
2012-10-15,61.4,50.6,41.0,50.4,43.6,37.6,91,78,55,27.96,27.82,27,6,27,0.22
2012-10-16,47.4,41.0,32.7,37.7,34.2,29.8,91,77,56,28.06,27.96,20,3,20,0.22
2012-10-17,60.7,44.3,27.6,40.3,33.3,25.8,97,70,33,28.05,27.93,17,2,17,0.23
2012-10-18,57.5,48.9,42.7,46.7,42.5,37.3,100,79,62,27.94,27.80,31,3,31,0.60
2012-10-19,58.2,50.0,41.3,47.4,39.0,29.3,100,69,34,27.93,27.72,18,2,18,0.68
2012-10-20,46.5,41.0,37.5,38.0,35.7,32.4,97,82,62,28.02,27.81,22,3,22,0.74
2012-10-21,49.2,38.8,31.3,40.9,34.1,29.3,100,84,59,28.23,28.01,16,1,16,0.74
2012-10-22,64.0,43.5,25.9,45.2,35.5,25.0,99,77,46,28.29,28.21,15,1,15,0.75
2012-10-23,70.0,53.9,41.2,53.7,44.4,37.3,95,73,40,28.23,28.15,20,2,20,0.76
2012-10-24,69.9,57.0,46.5,50.6,47.4,43.3,91,72,48,28.27,28.19,14,1,14,0.76
2012-10-25,72.7,55.9,40.6,52.7,46.9,39.2,97,76,40,28.26,28.18,25,3,25,0.76
2012-10-26,68.1,57.9,53.5,53.9,52.0,50.4,94,81,55,28.24,28.13,19,3,19,0.76
2012-10-27,57.6,52.4,43.6,51.9,48.2,41.8,96,86,70,28.13,28.00,17,2,17,0.77
2012-10-28,45.0,42.9,39.7,44.9,42.1,38.6,100,97,95,28.04,27.84,14,2,14,1.04
2012-10-29,39.7,35.3,29.5,38.6,34.4,28.2,99,96,94,27.85,27.13,16,3,24,2.85
2012-10-30,30.3,29.0,27.4,29.5,28.2,26.4,97,97,96,27.47,27.02,25,4,25,3.39
2012-10-31,31.0,29.5,22.0,30.5,28.8,21.2,99,98,96,27.73,27.47,21,5,21,4.08
2012-11-1,32.5,30.8,27.5,30.9,29.3,22.7,99,95,84,27.84,27.71,19,5,19,4.46
2012-11-2,33.7,31.4,29.6,28.8,26.8,23.5,94,83,72,28.02,27.79,26,6,26,4.51
2012-11-3,33.6,31.0,29.0,26.9,25.3,23.1,83,79,72,28.14,28.01,20,5,20,4.51
2012-11-4,31.2,29.6,27.8,25.6,21.9,19.5,84,73,66,28.14,28.10,15,2,15,4.51
2012-11-5,31.5,29.3,27.8,22.5,20.6,19.2,75,70,64,28.19,28.10,14,1,14,4.51
2012-11-6,36.7,30.1,23.4,24.2,20.9,17.1,80,68,59,28.16,28.02,17,2,17,4.51
2012-11-7,33.2,27.8,23.3,24.7,20.9,18.8,85,75,64,28.06,27.97,12,1,12,4.51
2012-11-8,35.7,28.1,20.6,26.6,22.0,17.3,88,78,60,28.19,28.04,23,3,23,4.51
2012-11-9,45.6,33.9,25.7,32.2,27.4,22.7,91,78,57,28.30,28.18,14,1,14,4.51
2012-11-10,57.2,39.4,26.0,36.8,30.5,23.7,95,74,42,28.38,28.27,18,1,18,4.52
2012-11-11,62.9,45.0,27.4,38.8,29.6,24.3,91,60,24,28.48,28.36,20,2,20,4.52
2012-11-12,62.2,51.0,35.3,46.5,40.9,32.3,93,69,49,28.37,28.14,31,6,31,4.63
2012-11-13,35.3,28.7,26.0,33.2,20.8,16.8,92,72,63,28.52,28.32,22,5,22,4.64
2012-11-14,31.8,26.9,21.1,21.3,18.6,16.8,84,71,62,28.56,28.43,15,2,15,4.64
2012-11-15,39.9,29.6,22.0,24.9,20.9,17.0,88,70,50,28.43,28.31,16,1,16,4.64
2012-11-16,44.2,29.5,0.8,26.8,21.0,-5.8,93,73,37,28.51,28.34,9,0,9,4.64
2012-11-17,43.9,29.2,16.0,24.3,18.4,12.8,89,68,33,28.62,28.50,16,1,16,4.64
2012-11-18,42.0,31.1,19.0,27.8,22.4,15.4,91,72,49,28.60,28.51,19,2,19,4.64
2012-11-19,43.4,34.2,23.6,30.2,27.1,19.4,90,76,55,28.51,28.26,16,1,16,4.65
2012-11-20,47.6,34.4,24.3,32.8,27.1,22.5,95,76,49,28.26,28.15,8,0,8,4.65
2012-11-21,50.4,34.3,21.7,31.4,24.2,19.7,94,71,34,28.30,28.19,10,0,10,0.00
2012-11-22,54.8,35.1,20.1,30.0,22.7,16.6,89,65,27,28.32,28.14,7,0,7,0.00
2012-11-23,46.7,34.6,24.4,40.5,28.4,16.1,99,78,64,28.14,27.88,32,6,32,0.12
2012-11-24,24.4,21.7,19.7,18.9,16.1,12.4,89,79,69,28.08,27.98,26,9,26,0.12
2012-11-25,34.6,27.9,22.0,20.9,17.9,14.7,81,66,53,28.07,27.91,21,6,21,0.12
2012-11-26,43.6,34.0,27.3,26.9,23.5,18.8,82,66,47,28.24,28.01,17,3,17,0.12
2012-11-27,31.4,29.3,25.9,29.9,26.7,23.9,98,90,79,28.29,28.21,9,0,9,0.23
2012-11-28,33.3,28.2,24.9,24.2,19.9,16.2,86,71,54,28.37,28.26,26,4,26,0.23
2012-11-29,39.3,27.0,19.8,24.5,19.2,15.7,89,74,48,28.44,28.32,14,1,14,0.23
2012-11-30,46.2,31.3,18.8,29.7,23.1,15.7,90,73,50,28.35,28.28,14,1,14,0.23
2012-12-1,52.4,37.3,23.3,37.3,28.3,19.2,88,71,55,28.41,28.32,12,1,12,0.23
2012-12-2,53.1,40.4,29.9,46.9,35.1,25.2,100,82,64,28.35,28.15,25,3,25,0.33
2012-12-3,55.8,51.5,46.2,54.6,50.7,46.2,100,97,90,28.30,28.27,11,0,11,0.48
2012-12-4,62.9,53.7,39.5,53.4,48.2,39.5,100,83,56,28.28,28.08,20,4,20,0.70
2012-12-5,44.1,34.9,24.5,41.9,28.8,17.3,92,79,66,28.36,28.16,22,4,22,0.71
2012-12-6,37.7,27.2,15.6,24.2,19.7,12.6,90,74,56,28.35,28.14,13,2,13,0.71
2012-12-7,34.7,31.6,28.6,34.7,29.5,23.1,100,92,79,28.14,28.08,5,0,5,1.01
2012-12-8,47.4,45.6,42.5,47.3,45.2,41.0,100,98,94,28.12,27.94,9,1,9,1.78
2012-12-9,42.6,40.1,38.1,41.3,39.2,37.7,100,97,94,28.20,27.92,19,2,19,1.91
2012-12-10,51.1,42.8,29.8,48.5,41.7,28.4,100,96,88,27.93,27.66,21,3,21,2.28
2012-12-11,30.7,29.1,27.1,30.1,27.0,23.8,99,92,84,28.25,27.84,16,3,16,2.34
2012-12-12,32.1,24.8,19.1,24.1,20.6,17.3,94,85,64,28.45,28.24,10,0,10,2.35
2012-12-13,36.6,24.1,13.4,22.7,17.7,11.1,94,78,51,28.46,28.33,16,1,16,2.35
2012-12-14,44.1,27.8,15.6,26.1,18.1,12.5,89,70,33,28.35,28.27,16,1,16,2.36
2012-12-15,42.3,33.1,22.5,27.0,21.2,16.8,84,64,42,28.29,28.05,16,2,16,2.36
2012-12-16,47.2,41.8,37.2,41.2,35.0,25.8,91,77,61,28.05,27.85,12,1,13,2.36
2012-12-17,50.8,43.4,38.9,47.2,41.3,38.1,100,93,74,27.88,27.61,17,1,17,2.84
2012-12-18,41.2,35.0,30.2,40.7,32.2,26.1,99,89,82,27.89,27.60,26,7,26,2.92
2012-12-19,37.1,34.5,30.6,33.7,31.2,28.0,94,88,82,28.21,27.83,22,3,22,2.92
2012-12-20,36.4,33.8,29.4,33.8,30.3,27.4,95,87,77,28.20,27.47,47,6,47,0.68
2012-12-21,35.7,27.4,22.2,33.8,23.1,20.2,95,84,71,27.69,27.43,37,5,37,0.72
2012-12-22,25.5,24.0,13.6,22.8,18.4,7.5,91,79,73,28.08,27.67,42,7,42,0.72
2012-12-23,38.5,27.1,16.6,24.7,18.9,13.1,87,72,55,28.07,27.91,18,2,18,0.72
2012-12-24,31.7,24.8,15.8,31.1,21.7,12.9,100,88,73,28.03,27.87,21,1,21,0.72
2012-12-25,34.4,30.7,28.4,34.1,28.3,23.9,100,91,82,28.23,27.90,15,1,15,0.79
2012-12-26,28.7,24.8,13.4,25.3,22.3,12.2,97,90,81,28.21,27.62,29,4,29,0.79
2012-12-27,26.3,24.3,-32.3,25.7,22.6,-33.2,98,93,89,28.09,27.61,27,6,27,0.79
2012-12-28,28.0,24.0,-0.9,21.9,20.0,-4.3,90,85,75,28.16,27.98,13,1,16,0.83
2012-12-29,30.4,26.1,-27.5,29.8,23.7,-29.3,98,91,77,27.97,27.64,32,4,32,0.84
2012-12-30,24.7,22.0,19.1,21.7,18.5,15.3,91,86,82,28.33,27.91,27,5,27,0.84
2012-12-31,30.7,24.4,7.5,26.6,20.0,6.3,97,84,60,28.31,28.04,24,4,24,0.84
2013-1-1,28.4,26.4,21.9,26.8,24.5,18.3,99,93,85,28.05,27.95,21,4,21,0.84